Wind_Speed
33 30 29 28 28 28 28 27 25 21 19 19 19 20 21 21 20 21 22 22 21 20 20 21 21 20 21 20 19 17 16 16 15 15 15 17 17 17 17 17 19 22 24 24 23 21 19 16 14 14 15 17 17 18 20 22 24 26 26 26 26 26 27 29 31 32 31 31 32 31 29 30 30 30 29 28 27 27 26 26 26 26 27 26 26
35 32 30 30 30 30 31 29 27 25 24 25 25 26 27 27 26 27 26 25 23 23 23 23 23 23 23 22 21 22 22 22 21 21 21 22 23 24 23 22 24 27 28 27 27 27 27 26 23 20 19 20 20 20 22 25 27 28 29 28 28 28 28 30 31 33 34 34 35 35 32 31 32 32 32 32 31 30 30 29 29 29 28 28 29
36 34 32 31 32 31 32 32 31 30 30 29 28 29 31 32 31 31 28 25 25 25 25 25 25 26 26 25 26 28 29 28 27 27 27 27 29 31 30 28 29 30 29 27 29 31 32 33 31 29 27 27 27 26 26 28 30 31 31 32 32 32 30 30 31 33 34 34 36 37 37 36 35 34 34 34 35 34 34 33 33 32 31 30 32
37 35 33 33 34 34 33 33 33 32 32 31 30 31 33 33 33 31 28 27 27 28 27 27 28 28 28 29 31 32 33 32 32 32 31 31 32 33 32 30 29 29 28 28 29 30 31 33 34 34 34 34 33 31 31 31 32 32 32 33 34 34 33 32 33 33 34 35 35 37 39 39 38 36 34 34 36 36 36 36 35 35 33 33 34
37 36 34 33 35 38 38 37 36 34 32 32 32 32 33 33 33 32 30 29 29 30 30 30 31 31 32 32 35 37 37 35 34 35 35 35 35 36 35 34 33 31 30 31 32 32 32 34 36 38 40 39 37 36 35 35 35 35 36 36 36 36 36 36 36 35 36 36 36 37 40 41 40 37 35 38 40 39 39 38 36 35 34 35 36
34 33 35 34 34 38 41 42 40 37 36 35 35 35 35 34 34 33 32 32 32 32 32 33 34 34 35 35 37 39 39 37 36 36 36 36 36 36 36 36 36 35 34 33 34 36 37 38 40 41 43 43 42 41 41 40 41 41 40 40 39 39 40 40 39 38 37 37 38 40 41 42 40 36 35 38 41 41 41 40 38 36 36 36 37
31 31 35 35 34 37 41 42 41 40 40 39 38 38 38 37 37 36 36 35 35 35 35 35 36 36 36 37 38 39 38 37 36 35 35 35 35 35 36 36 36 36 36 35 35 37 39 41 43 44 46 46 46 46 44 43 45 45 45 44 43 43 44 44 43 41 40 39 40 42 43 43 43 41 40 41 41 40 40 40 40 40 39 37 36
35 36 38 38 38 39 39 40 40 40 40 40 40 41 41 41 40 40 39 38 38 38 38 38 38 37 37 37 37 37 36 34 34 33 32 31 31 32 34 36 37 37 37 38 39 39 40 41 43 45 47 47 47 47 46 45 47 48 47 47 48 48 48 48 47 46 45 43 42 41 42 46 47 45 44 46 45 44 42 41 41 42 42 41 39
41 43 44 42 42 43 42 41 41 41 40 40 41 43 43 43 44 43 42 42 41 41 41 41 40 39 37 36 36 36 34 33 31 30 29 28 28 29 30 32 34 35 36 37 38 39 41 42 44 46 47 48 49 50 50 50 50 50 49 49 51 52 52 51 50 49 48 46 43 41 41 44 45 45 47 48 48 48 46 45 47 48 49 48 46
46 48 49 46 45 46 45 43 43 43 42 42 42 43 44 45 46 46 45 45 45 45 44 44 42 40 38 37 36 35 34 33 33 31 29 27 27 26 26 26 26 26 27 28 29 31 33 36 39 42 45 47 50 53 54 55 55 55 54 53 52 51 52 54 54 52 49 46 43 41 40 40 42 46 50 52 51 51 51 51 52 52 52 52 50
48 50 51 50 49 49 46 44 44 44 43 44 44 44 45 45 45 45 46 46 47 47 46 45 43 41 39 38 37 36 35 35 35 34 31 28 27 25 24 22 22 24 25 26 28 29 30 32 35 38 41 45 49 52 55 58 59 59 60 59 57 55 56 57 56 54 52 48 44 43 44 46 48 50 52 54 56 56 57 56 55 54 53 54 55
50 51 52 52 52 51 50 49 48 46 44 45 45 44 44 44 44 44 45 45 45 45 45 45 44 42 40 39 38 36 35 36 36 35 33 32 30 29 26 25 26 28 30 32 33 34 35 36 38 40 43 46 49 52 55 58 60 61 62 62 61 60 61 61 60 58 57 56 53 52 53 56 57 56 57 59 61 62 62 61 61 60 59 60 60
51 52 53 52 52 53 53 52 51 48 45 46 46 46 46 47 46 44 43 42 42 43 44 44 43 41 40 40 39 38 37 37 36 35 35 34 33 33 31 30 31 32 34 37 38 40 42 44 47 49 49 48 49 52 54 55 57 58 60 60 60 60 59 59 60 61 60 59 59 58 58 59 60 61 63 66 67 67 67 66 65 64 64 63 63
54 54 54 54 54 54 54 52 52 52 51 50 50 49 50 50 49 46 44 44 44 44 43 42 41 41 40 40 40 40 39 38 36 35 35 35 35 35 35 35 36 37 39 41 43 44 47 51 56 57 53 49 49 51 53 55 56 57 58 59 60 61 60 60 61 62 61 60 59 58 58 59 62 64 66 67 68 67 67 65 64 63 62 61 62
58 58 57 58 58 57 56 55 56 56 56 54 53 53 53 53 53 52 51 50 47 45 43 42 42 43 41 40 40 40 39 37 36 36 36 36 37 37 38 38 39 40 42 44 46 48 52 56 59 56 50 47 48 49 51 53 56 58 59 60 61 62 63 64 65 66 66 65 63 60 58 58 60 63 65 66 67 66 66 65 64 62 61 61 61
58 58 59 59 59 59 58 58 58 58 58 56 54 55 55 54 53 53 53 51 47 45 44 43 42 41 39 37 38 37 36 36 36 36 36 38 39 40 40 41 42 43 44 46 48 51 54 55 52 48 46 45 46 46 47 48 49 51 52 54 55 56 57 59 61 63 64 64 62 61 60 59 60 62 64 66 68 69 69 68 68 67 66 67 67
56 57 57 57 57 58 58 58 57 57 57 57 56 55 54 54 53 52 51 49 46 44 43 41 39 37 35 35 36 35 35 35 36 37 39 40 41 41 41 42 43 43 45 46 48 49 49 47 45 45 45 45 45 45 44 44 42 42 41 42 43 44 46 47 50 52 53 54 55 56 57 59 60 62 65 67 70 72 72 72 72 72 72 72 73
55 56 55 55 56 56 57 56 56 55 55 56 56 55 54 54 54 52 50 47 45 43 42 40 38 37 36 37 37 36 36 37 38 40 41 42 42 42 42 42 42 43 43 44 45 44 43 42 42 43 43 43 43 42 40 38 36 34 34 34 36 37 38 39 40 42 43 44 46 48 50 52 55 57 60 63 66 68 70 71 72 72 73 73 73
55 55 55 55 55 55 55 54 54 53 53 53 53 53 53 53 52 51 49 46 44 42 42 41 40 39 39 39 40 39 39 39 41 42 43 43 43 42 41 40 40 40 41 41 40 40 39 39 39 38 38 37 36 35 33 32 31 32 33 35 37 37 38 38 39 39 40 41 42 43 45 46 48 50 52 55 57 59 61 62 64 65 66 67 67
55 55 55 55 55 54 54 53 53 53 52 52 52 52 51 51 51 50 48 46 44 44 44 42 41 41 41 42 42 41 40 40 41 42 42 41 39 38 38 37 38 38 38 38 37 37 37 37 37 36 36 36 36 35 34 34 36 38 39 40 39 39 39 39 39 40 41 41 42 43 44 45 47 48 50 51 53 54 55 56 58 59 60 61 62
52 53 54 54 54 54 54 54 53 53 52 52 52 52 52 51 51 49 48 46 45 45 44 43 43 43 43 41 40 38 38 38 39 38 37 36 35 35 35 35 35 35 35 35 36 36 36 36 37 37 38 38 38 37 37 38 40 40 39 39 38 37 38 38 39 40 41 42 43 44 45 46 47 48 49 50 52 53 54 55 56 56 57 58 58
49 50 50 50 51 51 52 52 52 52 52 52 52 52 52 51 50 48 46 45 45 44 44 43 43 42 40 37 35 35 35 34 34 33 33 33 33 34 34 34 33 33 34 35 37 38 38 37 37 37 38 37 36 37 39 40 38 36 34 34 34 35 35 36 37 38 39 41 42 43 45 46 47 49 49 50 51 53 54 54 55 56 56 57 57
48 49 49 49 49 49 49 50 50 50 50 50 50 50 49 48 46 45 44 43 43 43 42 41 40 38 36 34 33 33 32 31 30 31 31 32 33 33 33 33 34 35 37 38 39 39 38 37 37 37 37 36 36 38 39 37 34 33 34 35 37 38 38 38 39 39 40 41 42 43 44 45 46 48 49 50 52 54 54 55 55 56 56 57 57
51 51 51 51 50 50 49 48 47 47 46 45 44 43 43 43 42 41 41 41 41 40 39 38 36 35 34 33 32 31 30 30 30 31 31 32 32 33 34 35 37 38 39 39 39 38 36 36 37 37 36 35 36 37 37 36 36 36 38 40 43 45 44 43 43 43 43 43 43 43 44 44 44 47 48 50 52 54 55 56 57 57 57 57 57
51 51 50 50 49 48 46 44 42 41 40 39 38 38 39 39 40 40 40 40 38 36 35 34 34 34 33 32 30 29 29 30 31 31 32 32 34 35 37 38 39 39 39 39 39 38 37 37 38 37 35 35 36 37 38 39 40 42 44 47 49 49 49 48 48 48 47 47 46 46 46 46 46 47 49 51 53 53 55 57 57 58 59 60 59
45 46 46 46 45 42 39 37 35 34 33 34 36 37 38 39 39 40 40 38 36 35 35 36 36 35 32 29 28 28 29 30 31 32 33 34 36 37 38 39 39 39 40 40 40 40 40 39 37 34 33 36 39 42 44 46 48 50 52 53 54 54 54 53 53 53 53 52 51 51 51 50 50 51 52 53 53 54 55 57 58 59 60 61 62
39 40 42 43 42 38 34 33 33 34 34 34 35 36 37 39 40 40 40 38 38 39 40 39 35 31 28 27 28 29 29 30 31 32 34 35 36 38 38 39 40 41 41 41 41 41 40 37 33 32 37 43 47 49 51 54 55 56 57 57 58 59 59 59 58 58 58 57 57 56 55 55 55 55 55 55 56 56 57 58 59 60 61 62 64
35 36 38 40 40 39 36 36 37 39 39 38 37 36 38 39 40 40 40 40 39 38 36 33 29 28 28 28 28 29 29 30 32 34 35 37 38 39 40 40 41 41 41 42 42 41 38 33 33 38 46 51 54 55 57 58 58 58 59 61 62 62 62 62 62 62 62 62 62 61 60 60 60 59 59 59 59 60 60 61 62 63 63 63 64
33 34 35 36 38 38 38 39 40 42 42 42 41 40 40 41 41 41 40 39 36 34 31 29 28 29 29 28 28 29 30 32 35 36 38 39 39 40 41 41 41 40 40 40 40 39 37 37 41 48 54 56 57 59 59 60 60 61 63 64 65 64 64 64 64 64 65 65 65 65 65 64 63 63 63 63 63 63 63 64 65 66 66 66 67
31 32 34 35 36 37 37 39 41 42 42 42 42 43 43 43 42 41 39 37 35 33 31 30 30 30 30 29 30 31 33 35 36 38 39 39 40 41 41 41 39 38 39 41 42 42 43 46 50 54 56 58 59 60 61 61 63 65 66 67 67 67 67 66 67 67 68 69 69 69 69 68 67 67 66 66 66 67 67 68 69 69 70 71 71
28 30 31 32 33 34 35 38 41 43 44 45 45 46 45 43 41 39 37 36 35 34 33 33 33 33 33 33 33 34 35 37 38 40 40 41 41 42 41 41 40 41 43 45 47 48 50 52 55 57 59 60 62 62 63 65 66 68 69 70 70 70 69 69 70 70 70 71 72 73 73 73 72 71 70 70 70 70 71 71 72 73 74 75 75
26 27 28 28 28 29 31 35 39 42 44 45 46 45 42 40 39 38 36 36 35 35 36 36 36 36 37 37 38 38 39 40 42 42 43 43 42 42 42 42 44 46 48 51 52 54 55 57 59 61 63 64 65 66 67 69 70 71 72 72 73 73 74 74 74 74 74 75 76 76 76 76 76 76 75 75 75 75 75 75 76 77 78 78 79
26 25 24 24 24 25 28 32 35 39 42 44 44 43 41 40 39 37 35 35 36 37 38 39 39 40 41 42 42 43 45 46 46 45 44 42 41 42 44 46 48 51 54 56 58 60 61 62 64 65 66 67 69 70 71 72 73 74 75 75 76 77 78 78 78 79 79 80 80 80 80 79 79 79 79 79 79 80 80 80 80 80 81 81 82
26 24 24 25 25 27 30 33 35 36 37 38 39 39 39 38 36 34 34 36 37 39 41 42 43 45 45 45 46 48 50 49 48 46 44 43 43 45 48 51 54 57 60 62 63 64 65 67 68 69 69 71 73 74 74 75 76 77 78 79 80 81 82 83 84 84 85 85 85 84 83 82 82 82 82 83 83 84 84 84 84 84 84 85 85
28 28 29 30 31 33 34 35 34 31 28 28 29 30 31 32 33 34 36 38 40 42 44 45 45 46 47 48 50 52 52 50 48 47 47 47 48 50 53 56 59 62 65 67 68 69 70 71 72 73 74 75 76 76 77 78 79 80 81 83 84 86 87 89 90 90 90 89 88 87 85 84 84 84 85 85 86 86 87 87 88 88 88 88 89
28 32 34 34 36 38 37 35 32 29 27 27 30 31 32 33 35 37 39 41 44 46 46 45 46 47 50 52 53 53 52 51 50 50 51 51 53 56 59 62 65 67 69 70 71 72 73 73 74 76 77 78 78 79 80 81 83 84 86 88 90 91 92 93 94 94 93 92 91 89 88 87 87 87 87 88 89 89 90 90 91 91 91 92 92
29 33 34 34 36 39 39 36 33 31 30 31 32 34 35 36 38 40 43 45 47 47 46 46 48 51 53 53 52 52 51 51 52 53 54 56 59 62 64 67 70 71 72 72 73 73 74 75 76 78 79 79 80 81 83 85 87 89 91 93 94 96 97 97 97 97 95 94 92 91 90 89 89 89 90 90 91 92 92 93 93 94 94 95 95
27 32 36 36 37 40 41 41 41 40 39 36 36 37 40 41 43 45 47 48 48 47 48 50 52 53 52 50 50 51 52 53 55 56 59 62 65 67 70 71 72 72 72 72 73 74 75 77 79 80 81 82 83 85 87 89 91 94 96 97 99 100 101 101 100 99 97 96 94 93 92 92 92 92 92 93 93 94 95 95 96 96 96 97 97
24 28 34 38 40 42 44 46 46 47 46 44 42 43 44 45 47 50 51 50 49 49 51 52 52 51 50 50 51 53 55 57 59 62 65 67 69 70 70 70 69 70 72 73 75 77 78 80 82 83 84 86 88 90 93 95 97 99 101 103 104 105 105 104 103 101 99 98 96 96 95 95 95 95 95 95 96 96 97 97 98 98 99 99 99
30 29 32 37 41 43 45 47 48 48 48 48 47 46 46 46 47 49 51 51 51 51 51 51 50 51 52 53 55 57 59 62 64 66 68 68 68 67 67 67 69 71 74 76 78 80 82 84 85 87 89 91 94 96 98 100 102 104 106 108 108 108 108 106 104 102 101 100 99 99 99 98 98 97 97 97 96 96 97 97 97 97 97 97 97
34 34 35 36 38 39 41 43 45 46 47 48 48 47 46 46 45 45 48 51 52 52 53 53 53 54 56 57 60 62 64 65 65 65 65 65 65 66 67 69 72 75 77 80 82 84 85 87 89 91 94 96 99 101 103 105 107 108 110 111 111 111 109 107 105 103 102 101 101 100 99 98 98 97 96 96 95 95 95 94 94 93 93 92 92
32 34 37 37 37 37 37 38 38 40 42 43 44 44 44 44 43 44 46 49 51 52 52 53 54 56 59 61 62 63 63 63 63 63 64 65 67 69 71 75 77 79 81 83 85 87 89 91 94 96 99 101 103 106 108 109 111 113 114 115 114 111 109 107 105 104 103 101 100 98 97 96 95 95 94 93 92 91 90 90 89 88 88 87 86
32 34 36 36 37 37 36 35 35 35 37 39 40 41 41 41 42 44 46 48 50 51 52 55 57 59 60 61 61 61 62 63 64 65 67 69 71 74 77 79 81 83 85 88 89 92 94 97 99 102 104 106 108 110 112 114 116 118 117 116 113 110 109 107 105 103 101 99 97 95 93 92 90 89 88 87 86 86 85 85 84 84 84 83 83
35 35 35 35 36 37 37 37 36 36 36 37 38 39 40 41 42 44 47 49 51 53 55 57 58 58 59 60 61 62 64 66 68 69 71 74 76 79 81 83 86 88 91 93 95 98 100 103 105 107 109 111 113 115 118 119 120 119 116 114 111 110 108 106 103 100 97 95 92 89 87 85 84 83 83 82 82 82 82 82 81 81 81 81 81
38 37 37 36 35 36 37 38 38 38 38 38 39 40 41 42 44 46 48 50 51 53 54 56 57 59 61 63 64 66 68 69 71 73 75 77 80 83 86 89 91 94 96 99 101 104 106 108 109 111 113 115 118 120 121 121 119 117 114 113 111 108 105 102 98 95 91 89 86 85 83 82 81 80 80 80 80 79 79 79 78 78 78 78 78
40 39 39 37 36 35 35 36 37 37 38 38 39 40 41 42 44 46 48 50 52 54 56 58 60 62 64 66 67 69 71 72 74 77 79 82 86 89 91 94 97 99 102 104 106 108 110 111 113 115 117 120 121 121 120 118 116 114 113 111 108 104 99 95 91 88 86 84 83 82 81 80 79 78 77 77 76 76 76 75 75 74 74 74 74
41 40 39 38 38 37 36 35 35 35 36 37 38 40 41 43 45 48 50 53 55 57 59 61 63 65 66 68 70 72 74 76 79 82 85 88 91 94 97 99 101 104 106 108 110 111 113 115 117 119 120 121 120 119 117 115 114 112 109 105 100 96 92 89 87 85 84 83 82 81 81 80 79 78 77 76 75 75 74 74 73 73 72 72 72
40 39 39 39 39 38 36 35 35 36 38 40 42 44 46 48 50 53 55 57 58 60 62 63 65 67 69 71 73 76 78 81 84 88 91 94 96 99 101 103 105 107 109 110 112 114 116 117 119 120 120 119 118 116 114 112 109 106 101 96 92 89 87 86 85 84 83 82 82 81 81 81 80 79 79 78 77 76 76 76 75 75 75 74 73
39 39 39 40 40 40 39 40 41 42 44 46 48 50 52 53 55 56 58 59 61 63 65 67 69 70 72 75 77 80 84 87 91 94 96 98 100 102 103 105 107 109 111 113 115 116 118 118 119 118 117 116 115 113 110 106 102 98 94 91 89 87 86 85 84 83 83 82 81 81 81 80 80 80 79 78 77 76 76 75 75 75 75 75 74
38 39 40 41 42 43 44 45 46 48 49 51 52 54 55 56 58 59 60 62 64 66 67 69 71 73 76 79 83 86 90 93 95 97 98 100 102 104 106 108 110 112 114 115 116 117 117 117 117 116 114 113 110 107 103 98 95 92 91 89 88 87 85 84 84 84 83 83 83 83 83 83 82 82 81 81 79 78 77 76 76 75 75 75 74
39 40 41 42 44 45 47 49 50 51 53 55 56 57 59 60 61 62 63 65 66 68 70 72 76 79 82 86 89 91 94 95 97 98 100 102 104 106 108 110 112 113 115 115 115 115 115 115 114 112 110 107 103 99 95 93 91 90 89 88 87 86 86 85 85 84 84 84 84 84 84 84 84 84 83 83 81 80 78 76 75 75 74 74 74
Wind_Direction
228 230 232 234 234 235 235 233 231 232 237 240 241 240 241 243 246 249 255 265 277 281 279 277 278 284 293 298 298 293 283 275 272 273 277 278 277 274 269 271 277 282 281 279 277 272 271 282 298 309 308 305 306 308 306 304 300 297 297 296 294 291 288 287 287 287 289 291 292 293 293 294 296 298 300 300 299 299 298 300 299 299 300 299 299
231 233 233 234 234 235 235 233 231 231 233 234 237 243 248 250 250 254 260 269 276 275 275 276 279 283 288 292 295 295 290 282 276 273 276 276 275 273 269 267 271 277 282 283 283 279 274 274 279 289 296 295 294 293 294 295 296 298 299 298 295 291 288 288 287 286 287 288 290 291 293 296 297 296 296 295 295 294 294 295 295 296 298 296 296
233 235 236 236 236 237 238 237 234 234 236 238 242 247 252 254 256 259 265 270 271 272 276 280 282 285 286 290 294 296 294 288 281 276 276 276 277 276 271 266 267 272 276 279 281 282 281 280 279 281 286 289 288 288 287 287 288 292 296 297 295 292 290 288 286 286 288 289 290 290 291 295 298 298 296 293 293 291 290 291 290 291 293 292 292
234 235 237 239 239 240 241 240 238 238 239 241 245 249 253 256 259 262 266 269 271 274 279 282 284 285 287 289 295 298 297 292 284 279 278 277 277 276 270 265 265 266 266 266 269 272 276 280 280 279 279 281 283 285 285 283 281 281 285 289 290 291 290 289 287 286 288 289 290 289 289 293 295 297 297 296 296 295 291 289 287 286 288 287 286
233 235 237 240 243 243 244 244 242 241 241 243 245 248 250 253 257 262 266 268 270 274 279 283 285 287 288 291 296 299 299 295 288 283 280 277 275 274 271 269 269 269 266 264 262 262 265 269 272 272 273 275 278 280 280 279 276 275 278 282 283 283 284 286 287 285 286 288 288 286 286 288 290 293 294 293 294 293 289 289 288 286 285 283 282
233 237 238 240 244 247 246 246 245 245 245 245 246 247 248 251 255 259 263 265 268 273 278 283 285 286 287 290 296 299 299 297 292 285 280 276 274 272 271 271 271 272 272 270 267 267 266 267 269 271 272 275 278 279 279 277 275 274 275 277 277 277 278 280 281 281 281 282 283 285 286 285 284 284 284 285 288 288 285 285 283 279 277 277 276
225 233 238 238 241 245 245 246 247 247 247 247 248 249 250 253 257 259 262 265 269 274 279 282 284 285 285 288 293 296 297 296 292 285 279 274 271 270 270 271 273 274 275 275 275 273 272 270 270 271 273 274 276 278 278 279 278 275 273 274 274 274 274 273 275 275 275 276 278 282 284 282 281 278 274 274 278 280 280 279 275 271 270 272 274
215 224 232 234 235 240 243 244 246 247 248 248 248 249 252 255 259 261 264 267 271 275 279 282 283 283 283 286 290 292 293 293 289 284 280 277 275 273 273 273 275 276 276 275 275 275 275 274 272 271 271 272 275 276 277 276 276 274 273 273 274 274 273 272 272 273 273 274 276 280 282 282 281 278 274 273 274 274 274 273 272 271 269 267 268
215 220 226 229 232 237 240 241 243 245 247 249 250 251 254 257 260 262 265 268 271 274 278 281 282 280 280 283 285 288 290 288 286 284 282 280 280 278 277 276 275 276 277 278 278 278 279 278 276 275 275 275 276 276 276 275 274 273 272 272 273 275 275 273 273 274 273 272 272 275 278 280 278 274 272 273 274 273 271 271 273 275 274 269 266
219 222 225 227 230 235 237 239 240 241 244 248 252 255 257 260 262 264 266 268 271 274 277 279 279 278 278 279 281 284 286 284 284 285 282 280 279 278 276 276 277 279 283 285 288 289 287 285 284 282 281 280 279 278 276 274 273 272 271 270 271 273 274 274 275 276 275 272 272 272 270 269 271 272 271 272 271 271 271 272 275 276 274 271 267
223 224 225 227 230 233 235 237 238 240 243 247 251 255 258 261 264 265 266 268 270 273 275 276 276 277 277 277 278 280 283 283 282 282 281 279 278 275 272 274 280 286 290 294 297 298 294 291 290 289 285 283 281 280 279 277 275 274 272 271 269 269 270 271 273 274 273 273 273 271 265 265 269 271 271 271 271 271 271 273 274 272 270 269 269
225 225 225 225 228 232 235 238 241 243 246 248 250 254 257 260 263 265 265 266 269 271 273 274 275 276 275 274 274 277 280 280 278 278 278 277 276 274 271 272 279 287 293 297 301 303 303 301 300 298 294 289 285 283 281 280 279 278 277 276 274 272 272 272 272 271 271 272 273 271 269 268 268 267 267 269 270 271 271 272 273 272 271 271 271
226 226 225 226 228 231 234 238 241 244 246 248 250 253 256 258 260 262 262 264 267 270 271 273 276 277 275 272 271 275 278 276 274 275 275 275 276 276 274 274 279 285 291 295 299 303 306 308 309 308 303 296 290 287 284 283 282 282 282 281 280 279 277 275 273 272 271 272 273 273 272 270 267 266 267 268 270 271 272 272 272 273 273 273 273
228 228 228 228 229 231 234 237 240 243 247 250 252 254 256 258 258 259 260 264 267 269 271 274 276 277 276 272 269 272 273 272 270 271 271 272 275 276 276 277 280 283 287 291 295 299 303 306 308 308 304 298 292 289 287 286 285 284 283 281 280 279 277 274 273 273 274 275 276 276 274 272 270 269 269 269 270 271 271 271 271 271 272 272 273
231 232 232 233 233 234 236 238 241 244 247 250 251 253 255 257 258 259 261 265 267 268 271 274 276 276 275 270 266 267 266 265 266 267 268 271 274 275 276 277 279 282 285 288 291 295 299 302 303 302 299 296 294 291 289 287 285 283 281 280 279 278 277 276 276 277 279 281 281 279 275 272 269 269 268 268 268 269 269 270 269 269 270 272 274
233 235 236 237 238 239 239 240 241 243 245 247 249 250 253 255 258 260 261 263 266 268 271 274 274 273 269 263 259 259 259 260 262 265 267 270 273 274 275 277 279 282 285 289 292 296 298 300 299 298 297 297 296 295 293 292 290 288 286 285 284 283 282 282 281 282 283 283 283 280 276 272 268 266 266 266 266 267 268 269 270 270 271 273 276
234 236 237 238 240 241 241 242 243 243 245 247 248 250 252 254 258 261 262 263 265 268 270 271 270 267 262 258 257 257 258 261 264 267 270 272 274 276 279 282 285 289 292 295 297 299 299 299 298 298 298 297 297 297 297 297 297 298 297 297 295 294 292 290 288 287 286 285 283 280 278 274 271 268 267 267 268 269 270 272 273 274 275 276 277
235 236 238 239 241 242 242 243 244 245 246 248 250 252 253 255 259 263 263 264 265 266 266 266 265 263 262 262 262 261 262 265 267 270 273 275 278 282 286 290 293 295 296 297 298 298 299 300 300 299 298 298 298 298 298 299 301 304 307 309 308 306 304 302 299 295 293 290 288 285 282 279 277 274 272 271 271 271 272 273 274 275 275 276 276
236 237 239 240 242 243 244 244 245 246 247 249 251 253 255 257 259 261 262 263 264 263 262 262 262 262 263 264 264 263 264 268 271 274 277 280 283 286 289 291 292 292 293 294 296 299 301 304 304 303 303 304 304 303 302 302 303 306 308 310 310 309 308 307 306 305 303 300 298 296 293 290 288 286 283 281 280 278 278 277 276 276 275 275 275
238 239 240 242 243 244 246 246 247 248 248 249 251 252 254 256 258 259 261 262 261 259 260 260 260 261 262 262 263 265 268 272 275 278 280 283 285 286 287 287 287 288 291 293 296 300 303 303 303 302 303 304 305 305 304 304 304 305 306 307 306 306 305 304 305 305 305 305 304 303 301 299 297 295 293 291 289 287 286 284 282 281 279 278 277
241 242 242 243 244 245 246 247 248 249 250 251 251 252 253 255 257 259 259 258 256 256 257 257 258 259 260 262 266 270 274 277 278 280 281 282 281 282 282 283 285 289 293 296 299 302 303 304 303 302 302 302 303 303 303 305 306 306 307 307 307 306 305 304 304 304 304 305 305 304 304 302 301 299 297 295 294 292 291 289 288 286 284 283 281
244 245 245 245 245 245 246 246 247 249 250 251 251 252 253 254 256 256 254 253 252 252 253 254 255 257 261 266 273 277 279 279 278 277 277 276 276 278 280 283 288 291 295 299 301 303 305 305 305 305 305 305 303 303 305 308 309 310 311 313 314 313 312 311 309 308 308 307 305 305 305 304 303 301 299 298 297 295 294 293 292 290 289 287 286
247 247 248 248 248 248 248 247 247 248 249 250 251 252 252 252 251 250 248 248 248 248 249 252 256 260 267 273 278 279 277 274 272 271 272 274 277 280 283 287 290 293 296 299 301 303 305 305 304 305 305 304 302 303 307 311 312 313 315 317 319 319 318 317 315 314 312 310 308 307 306 305 304 303 302 300 300 298 296 295 293 292 291 290 289
248 248 249 249 249 250 250 248 247 246 247 248 249 248 247 245 243 243 243 243 244 246 250 255 260 267 273 277 277 274 270 268 268 270 274 278 281 285 288 291 294 296 299 300 302 303 302 300 300 301 301 301 301 305 309 311 312 313 315 317 319 320 319 318 316 315 313 312 311 310 308 305 303 301 299 299 299 298 297 296 294 292 291 290 289
246 247 249 249 249 249 247 246 245 244 244 244 243 241 238 237 237 238 238 240 243 248 255 261 266 271 274 273 269 266 264 265 270 275 280 284 287 290 293 295 297 299 300 302 302 302 300 298 298 298 299 301 305 309 312 313 314 315 317 318 320 321 320 319 317 316 314 313 312 311 309 307 304 300 297 297 297 296 295 294 294 293 292 291 290
244 246 246 247 246 244 242 240 238 237 235 235 235 233 233 233 234 236 238 242 249 256 261 265 268 268 265 261 258 260 265 271 278 282 286 289 291 294 296 298 299 301 302 303 303 301 299 297 297 298 302 307 311 313 315 316 317 317 318 319 320 321 320 319 318 317 315 314 313 311 309 307 304 301 299 297 296 294 293 293 292 291 291 290 290
245 246 246 244 241 236 233 230 228 225 224 226 228 230 232 234 236 239 243 250 256 260 262 262 259 255 250 251 257 265 273 280 285 288 290 292 294 296 298 299 301 302 303 304 302 300 298 296 295 299 306 313 315 316 317 317 318 318 319 319 320 320 319 319 318 318 316 315 314 312 310 307 304 302 300 297 295 293 292 291 290 290 289 288 288
244 245 246 244 240 234 227 222 221 219 219 221 225 228 232 235 239 243 248 254 257 257 253 248 242 240 245 254 264 273 279 284 287 290 293 295 297 298 299 299 301 302 303 303 302 300 297 294 296 303 310 314 316 317 316 317 317 318 318 318 318 318 317 317 317 316 315 314 313 312 309 307 305 302 300 297 295 293 291 290 289 288 288 287 286
244 243 242 240 238 236 230 223 220 220 221 223 226 229 233 236 241 245 250 253 251 245 239 234 236 242 251 260 268 275 281 286 289 292 295 296 297 298 298 298 300 301 303 304 303 301 298 297 300 306 311 314 314 315 315 315 316 317 317 317 317 317 316 316 315 314 313 313 312 310 308 305 303 301 299 296 294 292 290 289 288 287 287 286 285
243 241 239 235 233 234 234 229 223 221 224 226 228 231 235 239 242 246 250 248 242 235 233 235 240 247 254 261 268 277 283 289 292 294 295 295 295 296 296 297 298 300 302 304 304 302 301 301 304 308 310 312 312 313 313 314 315 316 316 316 316 316 316 315 314 313 312 311 310 308 306 304 301 299 297 295 293 292 290 288 287 287 286 285 285
244 240 236 233 232 232 233 230 225 223 226 229 232 235 238 241 243 246 246 241 236 234 235 239 243 248 254 261 270 279 286 291 294 295 294 294 293 294 294 295 296 299 302 304 304 304 304 305 307 309 310 310 311 312 313 314 314 315 316 316 316 316 315 314 313 311 310 309 308 306 304 302 300 298 296 294 293 291 290 289 288 287 286 285 284
242 241 234 231 231 231 230 229 228 228 229 232 234 238 241 243 245 244 241 236 234 236 239 243 247 251 256 264 273 282 288 292 294 294 293 293 292 292 292 294 296 299 302 303 304 305 306 307 308 308 309 310 311 312 313 314 315 315 316 316 316 316 315 314 312 311 309 308 307 305 303 301 298 296 295 293 292 290 289 288 287 286 285 285 284
232 235 233 227 225 229 234 239 240 240 240 241 242 244 247 248 246 242 236 233 235 239 243 247 252 256 262 269 277 284 290 293 294 294 293 291 290 290 292 294 297 300 302 304 305 306 307 308 308 308 309 310 311 312 313 314 315 316 316 316 316 315 314 313 312 311 309 308 307 305 302 300 298 295 294 292 291 290 288 287 286 285 285 284 283
218 224 232 231 231 237 244 246 247 247 247 247 248 248 249 248 244 239 236 236 239 243 247 251 257 262 268 275 281 287 291 293 294 294 292 290 290 291 293 297 300 302 303 304 306 307 307 307 307 308 309 310 311 312 314 315 315 316 316 315 315 314 314 313 312 310 309 308 306 304 302 299 297 295 293 291 290 289 288 287 286 285 285 284 283
218 226 235 235 236 242 243 239 239 240 239 241 244 244 242 241 239 239 240 242 245 248 251 256 262 268 275 281 285 288 290 292 293 293 291 290 291 293 296 299 300 302 303 304 305 306 306 306 307 308 309 310 312 313 314 315 315 315 315 315 314 314 313 312 311 310 309 307 305 303 301 298 296 294 292 291 290 288 288 287 286 285 285 284 283
228 235 240 237 235 237 235 231 233 238 240 240 241 239 239 241 244 245 247 249 251 253 257 262 269 277 282 285 286 288 289 290 291 291 290 290 292 294 296 298 299 301 302 303 304 304 305 305 306 308 310 311 312 313 314 314 314 314 314 314 314 313 313 312 310 309 308 306 304 301 299 297 295 294 292 291 289 288 287 287 286 285 284 284 283
244 248 248 244 238 235 232 230 234 240 244 244 243 243 247 251 253 254 255 254 255 258 263 269 276 282 285 285 286 287 288 288 289 289 290 292 294 295 297 298 299 300 301 302 303 304 304 305 307 308 310 311 312 312 313 313 313 314 314 314 313 313 312 311 309 308 306 304 302 300 298 296 295 293 292 290 289 288 287 286 285 285 284 283 283
255 255 252 247 240 236 236 238 241 246 249 249 249 251 255 258 258 258 258 258 259 264 271 276 279 281 283 283 284 285 286 287 288 290 292 294 296 297 298 298 299 299 300 302 303 304 304 306 307 308 309 310 311 312 312 313 313 313 313 313 313 312 311 310 308 307 305 303 301 299 297 296 294 293 291 290 289 288 287 286 286 285 284 284 283
237 244 248 246 242 240 242 244 247 250 252 252 252 254 257 260 262 263 264 264 265 269 273 276 277 278 279 281 283 284 286 288 289 292 294 295 296 297 298 298 299 300 301 302 303 304 305 306 307 308 309 310 311 312 313 313 314 314 313 313 312 311 310 309 307 306 304 302 300 299 297 296 294 293 292 290 289 288 287 286 286 285 285 284 283
221 227 238 244 243 242 244 246 248 250 253 255 256 258 259 260 261 263 264 264 266 268 271 273 275 277 279 281 283 286 288 290 292 293 295 296 296 297 297 298 299 300 302 303 304 305 306 307 308 309 310 311 312 312 313 313 313 313 313 312 311 310 309 307 306 304 303 301 300 299 297 296 295 293 292 291 290 289 288 287 286 286 285 285 284
226 227 234 243 246 246 247 248 250 252 255 257 259 260 261 261 261 261 260 262 265 268 271 273 275 278 281 284 286 289 291 292 293 294 294 295 295 296 296 298 299 301 302 303 305 305 306 307 308 310 310 311 311 312 312 312 312 312 312 311 310 308 307 305 304 303 301 300 299 298 297 296 295 294 293 292 291 290 290 289 288 288 287 286 286
236 236 238 243 247 249 251 252 254 255 257 258 259 261 263 266 267 266 265 265 267 270 273 276 279 282 285 287 289 290 292 293 293 293 293 294 295 296 297 299 301 302 303 304 305 305 307 308 309 309 310 310 311 312 312 312 311 311 310 309 307 306 305 304 303 302 301 300 299 298 297 296 295 294 294 293 292 291 291 290 289 289 288 287 287
244 243 244 247 249 251 253 255 256 257 259 260 262 264 267 270 272 271 269 268 269 272 276 279 282 284 286 288 289 291 291 292 292 293 293 295 296 298 300 301 302 303 303 304 305 306 307 308 309 309 310 311 311 311 311 311 310 309 308 307 306 305 305 304 303 303 301 300 299 298 297 296 295 294 294 293 292 292 291 290 290 289 289 288 287
248 249 252 255 256 256 256 257 259 260 262 263 265 267 269 271 271 271 270 270 272 275 279 281 283 285 287 289 290 291 291 292 293 294 295 297 298 300 301 302 302 303 304 305 306 307 308 308 309 310 310 310 310 310 310 310 309 308 307 306 306 306 305 304 303 302 301 300 299 298 297 296 296 295 294 293 293 292 291 291 290 289 289 288 288
251 254 257 259 260 260 261 262 262 264 265 267 268 270 271 272 273 273 273 275 277 279 281 283 286 287 289 290 291 292 293 294 295 295 296 298 299 300 301 302 303 304 305 306 307 307 308 308 309 309 309 309 310 310 309 309 308 307 307 307 306 305 304 304 303 302 301 300 299 299 298 297 296 295 294 293 293 292 291 291 290 289 289 288 287
253 257 259 260 261 263 264 265 266 267 268 269 270 272 273 273 273 274 274 276 278 280 283 286 288 290 291 292 293 294 294 294 295 296 297 298 299 301 302 303 304 305 306 306 307 307 307 308 308 309 309 310 310 309 308 308 307 307 307 306 305 305 304 303 302 302 301 300 299 299 298 297 296 295 294 294 293 292 291 291 290 289 288 288 287
252 256 258 259 261 264 266 267 268 268 269 270 271 272 273 273 274 276 278 281 284 287 289 291 291 292 292 293 293 293 293 294 295 296 297 299 300 302 303 304 305 305 306 306 307 307 308 308 309 310 310 309 309 308 308 307 307 307 306 305 305 304 304 303 303 303 302 302 301 301 300 300 299 298 297 297 296 295 294 293 292 291 290 289 288
253 255 256 257 259 262 264 265 266 268 270 272 273 275 276 278 281 283 286 288 290 292 292 292 292 292 292 292 292 293 294 295 296 297 299 300 301 302 303 304 305 306 306 307 307 308 309 309 309 309 309 308 308 308 308 307 307 306 305 305 305 305 305 304 304 304 304 303 303 302 302 301 300 299 299 298 297 297 296 295 294 294 293 292 291
257 257 257 258 259 261 263 265 268 270 273 275 277 279 282 285 287 289 290 291 292 292 291 291 291 291 291 292 293 294 294 296 297 298 300 301 302 303 304 305 305 306 307 307 308 309 309 309 309 308 308 308 308 308 307 307 306 306 306 306 306 306 306 306 305 305 305 304 304 303 302 302 301 301 300 299 298 298 297 296 295 294 294 293 292
259 260 261 262 264 266 268 271 273 276 278 280 282 284 286 288 289 290 291 291 291 291 291 290 290 291 291 292 293 294 295 297 298 300 301 302 303 304 305 305 306 307 308 308 309 309 309 309 308 308 308 308 308 308 308 307 307 307 307 308 308 308 308 308 308 307 307 307 306 306 305 305 304 303 303 302 301 300 299 298 297 296 295 294 293
260 262 264 266 268 270 272 274 277 279 282 284 285 287 288 289 290 290 290 290 290 289 289 289 290 290 291 293 294 295 297 298 300 301 302 303 304 304 305 306 307 308 308 309 309 308 308 308 308 309 309 309 309 308 308 308 308 309 309 310 310 310 310 310 309 309 308 308 307 306 305 304 304 303 302 302 301 300 300 299 297 296 295 294 293
Height
10988 10990 10991 10993 10994 10995 10996 10997 10998 11000 11001 11002 11002 11003 11003 11003 11002 11001 11000 11002 11005 11005 11004 11003 11002 11001 11001 11000 11000 11000 10999 10999 10998 10997 10996 10995 10994 10993 10993 10992 10991 10990 10989 10988 10987 10987 10986 10985 10985 10983 10982 10981 10980 10980 10979 10978 10977 10976 10975 10975 10974 10973 10972 10971 10970 10969 10970 10970 10969 10967 10967 10965 10964 10963 10962 10961 10959 10957 10956 10956 10954 10952 10950 10948 10946
10985 10988 10989 10990 10991 10992 10993 10994 10996 10997 10998 10999 10999 11000 11000 10999 10998 10998 10999 11002 11003 11002 11001 11000 11000 11000 10999 10999 10998 10998 10998 10997 10996 10995 10994 10993 10992 10991 10990 10990 10989 10988 10987 10986 10986 10985 10984 10983 10982 10981 10980 10978 10978 10977 10976 10976 10975 10973 10973 10972 10971 10970 10969 10969 10968 10966 10966 10967 10967 10965 10964 10963 10961 10961 10960 10959 10957 10956 10954 10953 10951 10949 10947 10945 10944
10983 10985 10987 10988 10989 10989 10990 10991 10993 10994 10995 10996 10997 10997 10997 10996 10995 10995 10998 10999 10999 10998 10998 10998 10998 10998 10997 10997 10996 10996 10995 10994 10994 10993 10992 10991 10990 10989 10988 10987 10987 10986 10985 10984 10983 10982 10980 10979 10978 10978 10977 10975 10975 10974 10973 10973 10972 10971 10970 10969 10967 10966 10965 10965 10965 10964 10963 10963 10963 10962 10961 10961 10960 10959 10958 10957 10955 10954 10952 10951 10949 10947 10945 10944 10943
10980 10982 10984 10986 10986 10986 10987 10988 10989 10991 10993 10994 10994 10995 10993 10992 10992 10992 10994 10995 10994 10994 10994 10995 10994 10994 10994 10994 10993 10992 10992 10991 10990 10989 10988 10987 10986 10985 10985 10984 10983 10982 10982 10981 10980 10979 10977 10976 10975 10974 10973 10972 10972 10971 10970 10969 10969 10968 10967 10966 10964 10963 10962 10961 10961 10960 10959 10958 10959 10959 10958 10958 10958 10957 10956 10955 10953 10952 10950 10948 10946 10944 10943 10942 10941
10978 10981 10983 10984 10984 10983 10983 10984 10985 10988 10990 10991 10991 10990 10989 10988 10988 10989 10990 10991 10990 10990 10991 10991 10991 10990 10990 10990 10989 10988 10987 10986 10985 10984 10983 10982 10981 10980 10979 10979 10979 10979 10978 10977 10976 10975 10974 10973 10971 10970 10969 10968 10968 10968 10967 10966 10964 10964 10963 10963 10962 10960 10959 10958 10957 10957 10955 10953 10953 10955 10956 10956 10956 10955 10953 10951 10950 10949 10948 10946 10943 10941 10939 10937 10935
10978 10980 10981 10982 10981 10978 10978 10979 10981 10984 10986 10986 10986 10985 10984 10984 10985 10986 10986 10987 10987 10987 10988 10988 10987 10987 10986 10985 10984 10983 10982 10981 10980 10979 10978 10977 10976 10975 10974 10973 10974 10974 10973 10973 10972 10971 10970 10969 10967 10966 10965 10964 10964 10964 10963 10962 10961 10959 10959 10958 10957 10956 10955 10954 10954 10953 10952 10950 10950 10950 10952 10953 10953 10952 10950 10946 10944 10944 10943 10941 10938 10935 10933 10931 10929
10976 10977 10977 10977 10975 10971 10971 10974 10976 10979 10980 10981 10981 10981 10981 10981 10982 10982 10983 10984 10984 10984 10985 10985 10984 10984 10983 10982 10981 10979 10978 10976 10975 10974 10973 10972 10971 10970 10969 10969 10968 10968 10967 10967 10966 10965 10965 10964 10963 10962 10961 10960 10959 10958 10959 10959 10957 10955 10953 10953 10952 10951 10950 10949 10949 10949 10948 10948 10947 10947 10947 10947 10947 10947 10944 10941 10938 10937 10936 10933 10930 10927 10926 10925 10923
10969 10968 10968 10969 10967 10965 10966 10968 10971 10973 10975 10976 10976 10976 10977 10978 10979 10979 10980 10980 10981 10981 10981 10981 10980 10979 10978 10978 10977 10975 10974 10973 10971 10969 10968 10967 10967 10966 10965 10964 10964 10963 10962 10961 10960 10960 10960 10959 10958 10957 10956 10955 10954 10953 10953 10954 10952 10949 10948 10947 10946 10945 10944 10943 10943 10943 10943 10943 10944 10944 10942 10941 10941 10939 10936 10934 10932 10931 10930 10927 10923 10922 10921 10920 10919
10961 10959 10958 10959 10960 10959 10960 10962 10965 10968 10970 10971 10972 10973 10974 10975 10975 10976 10976 10977 10976 10976 10976 10976 10975 10974 10974 10973 10972 10971 10970 10969 10967 10966 10965 10964 10963 10962 10961 10960 10959 10958 10957 10956 10955 10955 10955 10953 10952 10951 10950 10950 10949 10947 10946 10946 10944 10943 10942 10941 10940 10939 10938 10937 10937 10937 10938 10938 10939 10939 10937 10935 10933 10929 10926 10925 10925 10924 10923 10921 10918 10916 10914 10913 10912
10954 10953 10953 10954 10954 10953 10954 10958 10962 10964 10966 10967 10968 10969 10969 10970 10971 10972 10972 10972 10972 10971 10971 10970 10969 10969 10969 10968 10968 10967 10965 10964 10963 10962 10961 10960 10959 10958 10957 10956 10955 10954 10953 10952 10951 10951 10950 10948 10947 10946 10945 10944 10942 10940 10939 10937 10936 10936 10935 10934 10935 10933 10931 10931 10931 10932 10932 10932 10932 10932 10930 10927 10923 10919 10916 10916 10916 10915 10914 10913 10912 10910 10907 10905 10905
10948 10948 10948 10949 10949 10949 10952 10955 10958 10960 10962 10963 10964 10964 10965 10966 10966 10967 10968 10968 10967 10966 10965 10964 10964 10964 10964 10963 10963 10962 10961 10960 10959 10958 10957 10956 10955 10954 10953 10952 10951 10950 10949 10948 10947 10946 10945 10944 10942 10941 10940 10938 10936 10934 10932 10930 10928 10927 10927 10926 10927 10927 10924 10924 10925 10925 10924 10924 10925 10923 10920 10917 10914 10910 10907 10905 10905 10906 10906 10905 10904 10902 10899 10897 10897
10941 10941 10942 10944 10945 10947 10950 10952 10953 10956 10959 10960 10960 10960 10961 10961 10962 10962 10963 10963 10962 10961 10960 10959 10959 10959 10959 10959 10958 10957 10957 10955 10954 10954 10953 10952 10951 10951 10950 10949 10947 10946 10945 10943 10942 10941 10939 10938 10937 10936 10934 10932 10929 10927 10925 10923 10921 10920 10919 10918 10918 10917 10916 10916 10917 10917 10915 10915 10915 10913 10910 10908 10906 10903 10899 10897 10895 10896 10896 10896 10895 10893 10891 10889 10889
10935 10936 10938 10940 10942 10944 10946 10948 10950 10953 10954 10955 10955 10956 10955 10955 10956 10957 10958 10958 10958 10957 10955 10954 10954 10954 10954 10954 10954 10953 10952 10951 10950 10950 10949 10948 10947 10947 10946 10944 10943 10942 10940 10939 10937 10935 10933 10931 10930 10929 10927 10925 10922 10919 10917 10915 10914 10912 10911 10909 10908 10907 10907 10907 10906 10906 10905 10904 10903 10901 10899 10898 10896 10894 10892 10889 10888 10886 10886 10885 10885 10883 10882 10880 10879
10929 10930 10933 10935 10937 10939 10942 10944 10946 10947 10948 10949 10949 10950 10949 10949 10950 10952 10952 10953 10953 10953 10952 10951 10950 10949 10949 10949 10949 10948 10947 10947 10946 10946 10945 10944 10943 10942 10941 10940 10939 10938 10936 10935 10933 10931 10928 10926 10925 10924 10922 10919 10916 10913 10910 10908 10906 10904 10902 10901 10900 10899 10898 10897 10896 10895 10894 10893 10892 10891 10889 10887 10885 10884 10882 10880 10879 10877 10876 10875 10874 10873 10872 10871 10870
10923 10925 10928 10930 10932 10934 10937 10939 10940 10941 10941 10943 10943 10944 10944 10944 10945 10946 10947 10948 10948 10948 10947 10947 10946 10944 10944 10944 10944 10943 10943 10942 10942 10941 10941 10940 10939 10938 10937 10936 10935 10933 10932 10930 10929 10927 10925 10922 10920 10918 10915 10912 10909 10906 10903 10901 10898 10896 10894 10892 10890 10889 10888 10887 10886 10884 10882 10881 10880 10879 10878 10877 10875 10873 10872 10870 10869 10868 10866 10865 10864 10863 10862 10862 10861
10918 10920 10923 10925 10927 10930 10932 10933 10934 10935 10935 10937 10938 10938 10939 10940 10941 10941 10942 10943 10943 10943 10943 10942 10941 10940 10939 10938 10938 10938 10938 10938 10938 10937 10937 10936 10934 10933 10932 10931 10930 10928 10927 10926 10924 10922 10920 10917 10914 10911 10908 10906 10903 10900 10897 10894 10891 10888 10886 10883 10881 10880 10879 10877 10876 10874 10873 10871 10869 10868 10867 10866 10865 10864 10862 10861 10859 10858 10856 10855 10853 10852 10852 10851 10850
10912 10915 10918 10920 10922 10924 10925 10927 10929 10930 10931 10932 10932 10933 10935 10935 10936 10936 10937 10938 10938 10937 10937 10937 10936 10936 10935 10934 10934 10934 10934 10934 10933 10933 10932 10931 10930 10929 10927 10926 10924 10923 10921 10919 10918 10916 10913 10910 10907 10905 10902 10900 10897 10894 10891 10888 10885 10882 10880 10877 10875 10873 10871 10870 10868 10866 10865 10863 10861 10859 10858 10856 10855 10854 10853 10851 10849 10847 10846 10844 10843 10842 10840 10839 10838
10907 10909 10912 10915 10916 10918 10919 10921 10924 10925 10926 10927 10928 10929 10930 10930 10931 10931 10931 10932 10932 10932 10931 10931 10931 10932 10931 10931 10931 10930 10930 10930 10929 10929 10928 10927 10925 10924 10922 10921 10919 10917 10915 10913 10911 10909 10906 10904 10901 10899 10897 10894 10892 10889 10886 10883 10880 10877 10875 10873 10870 10868 10866 10864 10862 10860 10858 10856 10854 10852 10850 10848 10847 10845 10844 10842 10840 10838 10837 10835 10834 10832 10830 10829 10827
10901 10904 10906 10909 10910 10912 10914 10916 10918 10920 10921 10922 10923 10924 10925 10925 10925 10925 10925 10926 10926 10925 10926 10926 10926 10927 10927 10927 10927 10926 10926 10925 10925 10924 10923 10922 10920 10919 10917 10915 10913 10911 10909 10907 10905 10903 10901 10899 10896 10893 10891 10889 10887 10885 10882 10879 10877 10874 10871 10869 10866 10863 10861 10859 10856 10854 10852 10850 10847 10845 10843 10841 10839 10837 10835 10833 10831 10829 10828 10826 10825 10823 10821 10820 10818
10896 10898 10900 10903 10905 10906 10908 10910 10912 10914 10915 10917 10918 10919 10919 10919 10919 10919 10920 10920 10920 10920 10920 10921 10922 10922 10922 10922 10922 10922 10921 10921 10920 10919 10918 10916 10915 10913 10911 10910 10908 10906 10904 10902 10900 10898 10896 10894 10891 10889 10887 10884 10882 10880 10878 10875 10872 10869 10867 10864 10861 10858 10856 10853 10851 10848 10846 10843 10841 10838 10836 10834 10831 10829 10827 10824 10822 10820 10819 10817 10816 10814 10812 10811 10810
10891 10892 10895 10897 10899 10900 10902 10904 10906 10908 10910 10911 10912 10912 10912 10913 10914 10914 10915 10915 10915 10915 10915 10916 10916 10917 10917 10917 10917 10917 10916 10916 10915 10913 10912 10911 10909 10908 10906 10905 10903 10901 10898 10896 10894 10892 10891 10889 10886 10884 10882 10879 10877 10874 10872 10869 10867 10864 10861 10858 10856 10853 10850 10848 10845 10842 10840 10837 10834 10832 10829 10827 10825 10822 10819 10817 10815 10812 10811 10809 10808 10806 10804 10802 10801
10886 10887 10889 10891 10893 10894 10896 10897 10899 10901 10903 10904 10904 10905 10906 10907 10908 10908 10909 10909 10909 10910 10910 10911 10911 10912 10912 10912 10912 10911 10910 10909 10909 10908 10906 10905 10904 10903 10901 10900 10898 10896 10893 10891 10888 10886 10884 10882 10880 10878 10876 10874 10871 10869 10866 10863 10861 10858 10855 10853 10851 10848 10846 10843 10840 10837 10834 10831 10828 10825 10823 10820 10817 10815 10812 10810 10808 10805 10803 10801 10799 10797 10795 10794 10792
10880 10881 10883 10885 10887 10888 10890 10891 10893 10894 10895 10896 10897 10898 10900 10900 10901 10902 10903 10903 10904 10905 10906 10906 10907 10907 10907 10907 10906 10905 10905 10904 10903 10902 10901 10900 10899 10898 10896 10895 10893 10891 10888 10886 10883 10881 10878 10876 10874 10872 10870 10868 10866 10864 10861 10859 10856 10854 10851 10849 10846 10844 10841 10838 10835 10832 10829 10826 10823 10820 10817 10814 10810 10807 10805 10803 10800 10798 10795 10793 10791 10789 10786 10785 10783
10874 10875 10877 10879 10881 10882 10883 10885 10886 10887 10888 10890 10891 10892 10893 10894 10895 10896 10897 10898 10899 10900 10901 10902 10902 10902 10902 10901 10901 10900 10900 10899 10898 10898 10897 10895 10894 10892 10891 10889 10887 10885 10883 10881 10878 10876 10874 10871 10869 10867 10865 10863 10861 10859 10857 10855 10852 10849 10847 10844 10841 10839 10836 10833 10830 10827 10824 10821 10818 10815 10812 10809 10806 10802 10798 10796 10793 10790 10787 10784 10782 10780 10778 10776 10775
10867 10870 10872 10874 10875 10877 10878 10878 10879 10881 10882 10884 10885 10887 10888 10889 10890 10891 10892 10894 10895 10896 10896 10897 10897 10897 10896 10896 10896 10896 10895 10894 10894 10893 10892 10891 10889 10887 10885 10884 10882 10879 10877 10875 10873 10871 10869 10866 10864 10862 10860 10858 10856 10854 10852 10849 10847 10844 10841 10838 10835 10832 10830 10827 10824 10821 10818 10815 10813 10809 10806 10804 10801 10797 10792 10789 10786 10783 10779 10776 10773 10771 10769 10767 10765
10862 10865 10867 10869 10871 10872 10873 10874 10875 10876 10878 10879 10880 10882 10883 10885 10886 10887 10889 10890 10891 10891 10892 10892 10892 10892 10891 10891 10891 10891 10891 10890 10889 10888 10887 10886 10884 10882 10880 10878 10876 10873 10871 10869 10868 10866 10863 10861 10859 10857 10855 10853 10851 10848 10846 10843 10840 10837 10834 10831 10828 10825 10822 10819 10816 10813 10810 10807 10805 10802 10799 10796 10793 10789 10786 10782 10778 10775 10771 10767 10764 10762 10760 10757 10755
10859 10861 10862 10864 10866 10867 10868 10869 10871 10872 10873 10874 10876 10878 10880 10881 10883 10884 10885 10886 10886 10887 10886 10886 10886 10886 10886 10886 10887 10886 10886 10885 10884 10882 10881 10880 10878 10876 10874 10872 10870 10868 10866 10864 10862 10860 10857 10855 10853 10852 10850 10847 10845 10842 10839 10836 10833 10829 10825 10822 10819 10816 10812 10810 10807 10804 10801 10798 10795 10793 10790 10787 10784 10780 10777 10773 10769 10766 10762 10759 10755 10753 10751 10749 10746
10856 10857 10858 10859 10861 10862 10863 10864 10866 10867 10868 10870 10871 10873 10875 10877 10878 10880 10881 10881 10881 10881 10880 10880 10880 10880 10881 10881 10881 10881 10880 10879 10878 10877 10876 10874 10872 10870 10868 10866 10864 10862 10860 10858 10856 10853 10851 10849 10848 10845 10843 10841 10838 10834 10831 10828 10825 10821 10818 10814 10811 10807 10803 10800 10796 10793 10790 10787 10785 10783 10780 10777 10773 10770 10767 10763 10759 10756 10753 10749 10745 10742 10741 10739 10737
10853 10853 10854 10855 10856 10858 10859 10860 10861 10863 10865 10866 10868 10870 10871 10872 10873 10874 10875 10876 10876 10875 10875 10874 10875 10876 10876 10877 10876 10876 10875 10873 10872 10871 10870 10868 10866 10864 10862 10859 10858 10856 10854 10852 10850 10848 10846 10844 10842 10839 10836 10833 10830 10827 10823 10820 10816 10813 10809 10806 10802 10798 10794 10791 10787 10783 10780 10777 10774 10772 10769 10766 10763 10759 10756 10753 10749 10745 10742 10738 10734 10732 10729 10727 10726
10849 10850 10850 10851 10853 10854 10856 10857 10858 10860 10862 10863 10865 10865 10866 10866 10867 10868 10869 10870 10871 10871 10871 10871 10871 10871 10872 10871 10870 10869 10868 10867 10866 10865 10864 10862 10859 10857 10855 10854 10852 10850 10848 10847 10845 10843 10841 10838 10835 10832 10829 10825 10822 10819 10815 10811 10807 10804 10800 10796 10792 10789 10785 10781 10777 10773 10769 10766 10763 10760 10757 10754 10751 10748 10744 10741 10737 10734 10731 10727 10723 10720 10718 10715 10713
10847 10848 10848 10849 10850 10852 10853 10855 10856 10857 10858 10859 10859 10859 10860 10861 10862 10863 10864 10865 10866 10867 10867 10867 10867 10867 10866 10865 10864 10863 10862 10861 10860 10859 10857 10855 10853 10851 10849 10848 10846 10844 10843 10841 10839 10836 10834 10830 10827 10824 10820 10817 10813 10809 10806 10802 10798 10794 10789 10785 10781 10778 10775 10771 10767 10763 10758 10755 10751 10747 10743 10740 10737 10734 10731 10728 10724 10721 10718 10715 10712 10708 10705 10702 10700
10846 10847 10847 10848 10849 10851 10852 10853 10854 10854 10854 10854 10854 10855 10856 10857 10857 10857 10858 10860 10862 10862 10862 10862 10862 10861 10860 10859 10858 10857 10856 10854 10853 10852 10851 10849 10847 10845 10843 10841 10840 10838 10836 10833 10831 10828 10825 10822 10818 10815 10811 10807 10803 10799 10796 10792 10787 10783 10778 10774 10770 10766 10763 10759 10755 10751 10747 10743 10739 10735 10731 10726 10723 10719 10717 10714 10710 10707 10704 10702 10699 10695 10692 10688 10685
10845 10846 10847 10847 10849 10850 10851 10851 10852 10852 10852 10852 10853 10853 10854 10854 10853 10854 10855 10856 10857 10857 10857 10857 10857 10856 10855 10854 10852 10851 10849 10848 10847 10846 10844 10843 10841 10839 10837 10834 10832 10830 10827 10825 10822 10819 10816 10813 10809 10805 10801 10797 10793 10789 10785 10780 10776 10771 10767 10763 10758 10754 10750 10747 10743 10739 10735 10731 10727 10722 10718 10714 10709 10705 10702 10699 10695 10692 10689 10687 10684 10681 10678 10674 10671
10843 10844 10845 10846 10848 10849 10849 10850 10850 10850 10850 10850 10850 10850 10850 10850 10851 10851 10852 10852 10852 10853 10853 10852 10851 10850 10849 10848 10846 10845 10843 10842 10840 10839 10838 10836 10834 10832 10829 10827 10824 10821 10819 10816 10813 10810 10806 10803 10799 10795 10792 10787 10783 10778 10774 10769 10764 10760 10756 10751 10747 10742 10738 10734 10730 10726 10721 10717 10713 10708 10704 10700 10696 10692 10688 10684 10681 10677 10674 10670 10668 10665 10662 10658 10655
10841 10841 10841 10843 10845 10845 10845 10846 10846 10846 10846 10846 10845 10846 10846 10847 10848 10849 10848 10848 10848 10848 10847 10846 10846 10845 10843 10842 10840 10839 10837 10836 10834 10832 10831 10829 10827 10824 10822 10819 10816 10813 10810 10807 10804 10800 10797 10793 10789 10785 10780 10776 10771 10766 10762 10757 10753 10748 10744 10739 10735 10730 10725 10720 10716 10711 10707 10702 10698 10693 10689 10685 10681 10677 10673 10669 10665 10662 10658 10654 10651 10648 10645 10642 10639
10840 10839 10838 10839 10839 10838 10839 10841 10842 10843 10843 10842 10842 10843 10843 10844 10845 10845 10844 10844 10843 10842 10842 10841 10840 10839 10837 10836 10834 10832 10831 10829 10827 10825 10823 10821 10819 10816 10814 10811 10808 10805 10801 10798 10794 10791 10787 10783 10778 10774 10769 10764 10759 10754 10750 10745 10740 10736 10731 10727 10722 10717 10712 10707 10701 10697 10692 10688 10683 10678 10674 10670 10665 10661 10657 10653 10649 10645 10641 10638 10634 10631 10627 10624 10621
10837 10836 10835 10836 10836 10835 10836 10838 10838 10838 10838 10838 10839 10839 10840 10840 10840 10840 10839 10839 10838 10838 10837 10836 10834 10832 10830 10828 10827 10825 10824 10822 10820 10817 10815 10813 10811 10808 10806 10803 10799 10796 10792 10788 10785 10780 10776 10772 10767 10763 10758 10753 10748 10744 10739 10734 10729 10724 10719 10714 10709 10704 10698 10693 10688 10682 10678 10673 10668 10663 10659 10654 10649 10644 10640 10636 10631 10627 10624 10620 10617 10613 10610 10606 10603
10835 10834 10832 10831 10832 10833 10833 10834 10834 10833 10834 10834 10835 10835 10835 10835 10835 10834 10834 10834 10833 10832 10831 10829 10827 10825 10823 10822 10820 10818 10817 10815 10812 10810 10807 10805 10803 10800 10797 10793 10790 10786 10782 10778 10774 10770 10765 10761 10756 10752 10747 10742 10737 10733 10728 10722 10717 10712 10706 10701 10696 10690 10685 10679 10673 10668 10663 10657 10653 10648 10643 10638 10633 10628 10623 10618 10614 10609 10605 10602 10598 10595 10591 10588 10585
10830 10830 10827 10826 10827 10828 10829 10829 10829 10828 10828 10829 10830 10830 10829 10829 10828 10828 10828 10829 10828 10826 10824 10822 10820 10819 10817 10815 10813 10811 10809 10807 10805 10802 10800 10797 10794 10790 10787 10783 10779 10776 10772 10768 10763 10759 10754 10750 10745 10740 10735 10730 10725 10719 10714 10708 10703 10697 10691 10686 10681 10675 10669 10663 10658 10652 10646 10641 10636 10630 10625 10620 10615 10611 10606 10601 10597 10592 10587 10583 10579 10575 10572 10568 10565
10823 10824 10822 10821 10822 10823 10824 10823 10823 10823 10823 10823 10824 10824 10824 10824 10823 10823 10823 10823 10821 10819 10817 10816 10814 10812 10810 10808 10806 10804 10802 10799 10797 10794 10791 10788 10784 10781 10777 10773 10769 10765 10761 10757 10752 10748 10743 10738 10733 10728 10722 10717 10711 10706 10700 10694 10689 10683 10677 10671 10666 10660 10654 10648 10642 10636 10630 10624 10618 10613 10607 10602 10596 10592 10587 10583 10578 10574 10569 10565 10560 10556 10553 10549 10546
10819 10819 10818 10818 10818 10818 10818 10818 10818 10818 10818 10818 10818 10818 10818 10817 10817 10818 10818 10816 10815 10813 10811 10809 10807 10805 10803 10801 10799 10796 10793 10791 10788 10785 10782 10779 10775 10771 10768 10764 10760 10756 10751 10747 10742 10737 10732 10726 10721 10716 10711 10705 10700 10694 10688 10682 10676 10671 10665 10658 10652 10645 10639 10633 10627 10621 10615 10608 10602 10596 10590 10584 10578 10573 10568 10563 10558 10554 10550 10546 10542 10538 10534 10531 10528
10816 10815 10814 10814 10814 10813 10813 10813 10814 10813 10813 10813 10812 10812 10812 10812 10812 10812 10811 10810 10809 10807 10805 10802 10800 10798 10796 10794 10791 10788 10785 10782 10779 10776 10773 10770 10766 10762 10758 10754 10750 10746 10741 10737 10732 10727 10721 10716 10710 10705 10699 10693 10688 10682 10676 10669 10663 10657 10651 10644 10637 10630 10624 10617 10611 10604 10598 10591 10585 10578 10573 10567 10561 10556 10551 10545 10541 10536 10532 10528 10525 10521 10517 10514 10511
10810 10809 10809 10809 10808 10808 10808 10808 10808 10808 10808 10808 10807 10807 10807 10807 10806 10806 10805 10804 10802 10800 10798 10796 10794 10791 10788 10786 10783 10780 10777 10774 10771 10768 10764 10760 10757 10753 10748 10744 10739 10735 10730 10726 10721 10716 10710 10705 10698 10692 10686 10680 10674 10668 10661 10655 10648 10642 10635 10628 10621 10614 10606 10599 10593 10586 10579 10573 10567 10561 10556 10550 10545 10540 10535 10530 10525 10521 10517 10513 10509 10506 10502 10499 10495
10804 10803 10803 10803 10803 10803 10803 10803 10803 10803 10803 10802 10802 10802 10801 10801 10800 10799 10798 10796 10795 10793 10791 10789 10786 10784 10781 10778 10775 10772 10769 10766 10762 10759 10755 10751 10746 10742 10737 10733 10729 10724 10719 10714 10708 10703 10697 10691 10685 10679 10672 10665 10659 10653 10646 10639 10632 10625 10618 10611 10603 10596 10588 10581 10574 10568 10562 10556 10550 10544 10539 10534 10530 10525 10520 10515 10511 10507 10502 10499 10495 10492 10488 10484 10481
10798 10798 10798 10797 10797 10798 10798 10798 10798 10797 10797 10797 10796 10795 10795 10794 10793 10792 10791 10790 10788 10786 10784 10782 10779 10776 10773 10770 10767 10764 10760 10756 10753 10749 10745 10740 10736 10731 10727 10722 10717 10712 10707 10701 10696 10690 10684 10677 10671 10665 10658 10651 10644 10637 10630 10622 10614 10606 10599 10591 10584 10577 10570 10563 10557 10551 10545 10539 10533 10528 10524 10519 10515 10511 10507 10502 10497 10493 10489 10485 10482 10478 10474 10470 10467
10793 10792 10792 10792 10792 10792 10792 10792 10792 10791 10791 10790 10790 10789 10789 10788 10787 10786 10784 10783 10781 10779 10777 10774 10771 10768 10765 10762 10758 10754 10751 10747 10743 10739 10734 10730 10725 10721 10716 10711 10706 10700 10695 10689 10683 10677 10670 10663 10657 10649 10642 10635 10627 10620 10612 10605 10597 10589 10581 10573 10566 10559 10553 10547 10541 10535 10530 10524 10519 10513 10508 10504 10500 10497 10493 10488 10484 10480 10476 10472 10469 10465 10461 10457 10454
10787 10787 10787 10787 10787 10787 10787 10787 10786 10786 10785 10785 10784 10784 10783 10782 10780 10779 10777 10775 10773 10771 10768 10766 10763 10759 10756 10752 10749 10745 10741 10737 10733 10729 10724 10720 10715 10710 10705 10700 10694 10689 10682 10676 10669 10662 10655 10648 10641 10633 10626 10619 10611 10604 10596 10589 10581 10573 10565 10558 10551 10544 10537 10531 10526 10520 10514 10509 10503 10498 10492 10487 10483 10479 10476 10473 10469 10465 10461 10457 10454 10450 10447 10444 10441
10782 10783 10783 10783 10782 10782 10782 10782 10781 10780 10779 10779 10778 10777 10775 10774 10773 10771 10769 10767 10765 10762 10759 10756 10753 10750 10747 10743 10739 10735 10731 10727 10723 10719 10714 10710 10705 10699 10693 10688 10682 10675 10669 10662 10655 10648 10641 10633 10626 10618 10611 10603 10596 10588 10580 10572 10564 10557 10549 10542 10536 10530 10523 10517 10511 10505 10500 10494 10489 10483 10478 10472 10468 10464 10460 10457 10454 10450 10446 10442 10438 10434 10431 10428 10425
10777 10778 10778 10777 10777 10777 10776 10776 10775 10774 10773 10771 10770 10769 10768 10766 10765 10763 10761 10758 10756 10753 10751 10748 10744 10741 10737 10733 10730 10726 10722 10717 10713 10708 10704 10698 10693 10687 10681 10675 10668 10662 10655 10649 10641 10634 10626 10619 10611 10603 10595 10587 10580 10572 10564 10556 10548 10540 10533 10527 10521 10515 10509 10502 10496 10490 10485 10480 10475 10469 10463 10458 10454 10449 10445 10442 10439 10436 10432 10428 10424 10420 10416 10412 10409
10771 10771 10771 10771 10770 10770 10770 10769 10768 10767 10765 10764 10762 10761 10760 10758 10757 10755 10752 10750 10748 10745 10742 10739 10735 10732 10728 10724 10720 10716 10712 10708 10703 10697 10692 10686 10681 10675 10669 10662 10656 10649 10642 10634 10627 10619 10611 10603 10596 10587 10579 10571 10563 10555 10547 10540 10532 10525 10518 10511 10505 10499 10494 10488 10482 10476 10470 10465 10460 10454 10448 10443 10438 10433 10429 10425 10422 10419 10417 10413 10409 10405 10402 10398 10394
10767 10766 10766 10765 10765 10764 10763 10762 10761 10760 10758 10757 10755 10754 10752 10751 10749 10747 10745 10742 10739 10737 10734 10730 10726 10723 10719 10715 10711 10706 10702 10697 10692 10686 10681 10675 10669 10663 10656 10650 10643 10636 10628 10621 10613 10605 10597 10589 10581 10572 10564 10556 10548 10540 10532 10525 10518 10510 10504 10497 10491 10484 10479 10474 10468 10463 10457 10452 10446 10441 10435 10430 10425 10420 10414 10410 10406 10403 10401 10398 10395 10391 10387 10383 10379